Location: Clanezzo
(45.7500°N, 9.6000°E)
Time: 05:09:29
(UTC+00:00)

Gbstr 26 Del rocket - Pass Details

Date: 27 September 2021
Orbit: 492 x 1263 km, 51.8° (Epoch: 20 October)

Event Time Altitude Azimuth Distance (km) Brightness Sun altitude
Rises 21:06:31 0° 259° (W) 3,989 7.5 -38.3°
Reaches altitude 10° 21:09:13 10° 263° (W) 3,104 6.9 -38.6°
Enters shadow 21:15:10 52° 293° (WNW) 1,512 5.0 -39.3°
